This is the latest recevied weather packets stored in our database for station/object SV7GBF-2. If no packets are shown the sender has not sent any weather packets the latest 10 day(s).
| Time | Temp. | Humidity | Pressure | Rain* | Wind** | Luminosity | Snow |
|---|---|---|---|---|---|---|---|
| 1787896443 | 26.11° C | 67% | 1016 hPa | - | - | - | - |
| 1787895843 | 26.11° C | 63% | 1016 hPa | - | - | - | - |
| 1787895243 | 25.56° C | 61% | 1016 hPa | - | - | - | - |
| 1787894645 | 25° C | 60% | 1016 hPa | - | - | - | - |
| 1787894043 | 25° C | 60% | 1016 hPa | - | - | - | - |
| 1787893444 | 24.44° C | 60% | 1016 hPa | - | - | - | - |
| 1787892843 | 23.89° C | 60% | 1016 hPa | - | - | - | - |
| 1787892244 | 23.89° C | 59% | 1016 hPa | - | - | - | - |
| 1787891643 | 24.44° C | 58% | 1016 hPa | - | - | - | - |
| 1787891043 | 24.44° C | 60% | 1016 hPa | - | - | - | - |
| 1787890444 | 24.44° C | 61% | 1016 hPa | - | - | - | - |
| 1787889843 | 24.44° C | 62% | 1016 hPa | - | - | - | - |
| 1787889243 | 23.89° C | 62% | 1016 hPa | - | - | - | - |
| 1787888643 | 23.33° C | 61% | 1016 hPa | - | - | - | - |
| 1787888043 | 23.89° C | 56% | 1016 hPa | - | - | - | - |
| 1787887443 | 24.44° C | 59% | 1016 hPa | - | - | - | - |
| 1787886845 | 23.89° C | 59% | 1016 hPa | - | - | - | - |
| 1787886244 | 23.89° C | 58% | 1016 hPa | - | - | - | - |
| 1787885644 | 24.44° C | 60% | 1016 hPa | - | - | - | - |
| 1787885043 | 23.89° C | 60% | 1016 hPa | - | - | - | - |
| 1787884444 | 24.44° C | 56% | 1015 hPa | - | - | - | - |
| 1787883244 | 24.44° C | 58% | 1015 hPa | - | - | - | - |
| 1787882643 | 24.44° C | 58% | 1015 hPa | - | - | - | - |
| 1787882043 | 24.44° C | 57% | 1015 hPa | - | - | - | - |
| 1787881444 | 24.44° C | 58% | 1015 hPa | - | - | - | - |
* Rain since midnight (hover to see other rain measurements)
** Current wind speed in m/s (hover to see current wind gust speed)